DELTA 1 DEB, 26835

Orbit data source: Space-Track

DELTA 1 DEB, 26835 is space debris in SSO originally from a launch on Thu, 12 Jun 1975 UTC launched from the Air Force Western Test Range (AFWTR). Debris objects in space refer to the collection of defunct objects orbiting the Earth. Examples of debris include non-operational satellites, rocket bodies, and fragments generated from explosions, collisions, or faulty payload assembly.

Loading next visibility...
Identifier
26835, 1975-052KP
Orbit
SSO
Country
Flag of USUS
Related business
Manufacturer
Unknown
Mission
Spacecraft
Bus & Motor
Unknown
Mass
Unknown
Launch date (UTC)
1975-06-12 (51 years ago)
Launch vehicle
Unknown
Launch site
Air Force Western Test Range (AFWTR)
Object type
Payload
Rocket body
Debris
Shape & HBR
Unknown shape, 0.1 m
Radar Cross Section
Medium (>0.1 m² and <1 m²)

Expand to show TLE details & history
Last TLE update: 23 hours ago

TLE from 23 hours ago
0 DELTA 1 DEB
1 26835U 75052KP  26168.50583463  .00001173  00000-0  11574-2 0  9992
2 26835  99.7038  20.2540 0040342 139.2310 280.9983 13.80494299720600
Epoch: 2026-06-17T12:08Z
TLE epoch observation values (Epoch: 2026-06-17T12:08:24.112Z)
Latitude
58.49355°
Longitude
-83.72163°
Altitude
966.4 km
Speed
7.377 km/s
True Right ascension
00h 16m 33s
True Declination
58° 20' 40"
Sunlit
Object was in daylight at epoch
Visualization orbit readout
Latitude
Unknown
Longitude
Unknown
Altitude
Unknown
Speed
Unknown
Apparent Right ascension
Unknown
Apparent Declination
Unknown
Sunlit
N/A
Visualization observer readout
Local Sidereal Time
21:45:11
Azimuth
Unknown
Elevation
Unknown
Doppler factor
Unknown
Orbital elements
Apogee altitude
988.996 km
Perigee altitude
929.794 km
Semi-major axis
7,337.532 km
Eccentricity
0.00403
Inclination
99.7038°
RAAN
20.254°
Arg. of periapsis
139.231°
True anomaly
280.54407°
Mean anomaly
280.9983°
Eccentric anomaly
280.77123°
Mean motion
3.45317 °/min
Orbital period
104.25 mins
BSTAR
0.0011574
Loading maneuver chart data...
Computing Atmospheric mass density...
Loading historical data...
Loading historical data...
Loading historical data...
Loading historical data...
Loading historical data...
Loading historical data...
Loading historical data...

Documentation

Showing up to 5 results
|